Flag for Malaysia Weather past 2 weeks in Langkawi, Malaysia

Now
84 °F

Passing clouds.


Feels Like: 94 °F
Forecast: 79 / 86 °F
Wind: 2 mph from Northwest

Location: Langkawi

Current Time: Sep 20, 2014 at 10:34:29 PM

Latest Report: Sep 20, 2014 at 9:00 PM


Visibility: N/A

Pressure: 29.83 "Hg

Humidity: 79%

Dew point: 77 °F

Location of LangkawiLocation

Historic Weather in Langkawi — Graph

°F

Langkawi temperature yesterday

Maximum temperature yesterday: 90 °F (at 2:00 PM)
Minimum temperature yesterday: 79 °F (at 4:00 AM)
Average temperature yesterday: 84 °F

Past Weeks' High & Low Weather Summary

 TemperatureHumidityPressure
High91 °F (Sep 18, 12:00 PM)100% (Sep 7, 6:00 AM)29.95 "Hg (Sep 7, 6:00 AM)
Low73 °F (Sep 9, 9:00 AM)67% (Sep 18, 12:00 PM)29.68 "Hg (Sep 16, 4:00 PM)
Average81 °F87%29.82 "Hg
* Reported Sep 5 9:00 PM — Sep 20 9:00 PM, Langkawi, Weather by CustomWeather, © 2014

Note: Actual official high and low records may vary slightly from our data, if they occured in-between our weather recording intervals... More about our weather records

Advertising

Langkawi weather history for previous 24 hours

 ConditionsComfort  
Time TempWeatherWind HumidityBarometerVisibility
9:00 PM
Sep 20
84 °FPassing clouds.2 mph79%29.83 "HgN/A
8:00 PM84 °FPassing clouds.3 mph79%29.80 "HgN/A
7:00 PM86 °FPartly sunny.6 mph75%29.77 "HgN/A
6:00 PM88 °FPartly sunny.5 mph75%29.74 "HgN/A
5:00 PM88 °FPartly sunny.8 mph70%29.74 "HgN/A
4:00 PM90 °FPartly sunny.6 mph71%29.77 "HgN/A
3:00 PM90 °FPartly sunny.8 mph71%29.80 "HgN/A
2:00 PM90 °FPartly sunny.8 mph71%29.83 "HgN/A
1:00 PM90 °FBroken clouds.6 mph71%29.83 "HgN/A
12:00 PM90 °FBroken clouds.3 mph67%29.86 "HgN/A
11:00 AM88 °FPartly sunny.3 mph70%29.86 "HgN/A
10:00 AM86 °FPartly sunny.1 mph79%29.86 "HgN/A
9:00 AM84 °FPartly sunny.3 mph84%29.86 "HgN/A
8:00 AM81 °FBroken clouds.1 mph89%29.83 "HgN/A
7:00 AM81 °FPartly cloudy.2 mph89%29.83 "HgN/A
6:00 AM81 °FPassing clouds.5 mph89%29.80 "HgN/A
5:00 AM79 °FPartly cloudy.1 mph94%29.80 "HgN/A
4:00 AM79 °FPassing clouds.No wind94%29.80 "HgN/A
3:00 AM79 °FPartly cloudy.3 mph94%29.83 "HgN/A
2:00 AM79 °FPartly cloudy.1 mph94%29.83 "HgN/A
1:00 AM79 °FLight rain. Partly cloudy.1 mph94%29.86 "HgN/A
12:00 AM79 °FThunderstorms. Mostly cloudy.2 mph89%29.86 "Hg5 mi
11:00 PM
Sep 19
81 °FThunderstorms. Partly cloudy.3 mph89%29.89 "HgN/A
10:00 PM82 °FLight rain. Partly cloudy.3 mph89%29.86 "Hg5 mi
Weather by CustomWeather, © 2014

See weather overviewHow to use our weather pages